Location: Hradec Kralove
(50.2170°N, 15.8330°E)
Time: 12:54:36
(UTC+02:00)

Explorer 7 - Pass Details

Date: 27 January 2023
Orbit: 478 x 657 km, 50.3° (Epoch: 26 March)

Event Time Altitude Azimuth Distance (km) Brightness Sun altitude
Rises 18:56:35 0° 283° (WNW) 2,915 11.8 -21.5°
Reaches altitude 10° 18:58:53 10° 281° (W) 2,029 10.8 -21.9°
Maximum altitude 19:03:31 63° 200° (SSW) 727 7.4 -22.6°
Enters shadow 19:04:29 50° 149° (SSE) 830 7.4 -22.8°
Drops below altitude 10° 19:08:16 10° 120° (ESE) 2,073 - -23.4°
Sets 19:10:39 0° 118° (ESE) 2,985 - -23.7°
